Flag for U.S.A. Weather past 2 weeks in Bakersfield, California, U.S.A.

Now
65 °F

Sunny.


Feels Like: 65 °F
Forecast: 48 / 69 °F
Wind: 7 mph from West

Location: Meadows Field

Current Time: Feb 26, 2015 at 3:48:52 PM

Latest Report: Feb 26, 2015 at 2:54 PM


Visibility: 9 mi

Pressure: 29.91 "Hg

Humidity: 44%

Dew point: 42 °F

Location of BakersfieldLocation

Historic Weather in Bakersfield — Graph

°F

Bakersfield temperature yesterday

Maximum temperature yesterday: 67 °F (at 2:54 PM)
Minimum temperature yesterday: 42 °F (at 6:54 AM)
Average temperature yesterday: 55 °F

Past Weeks' High & Low Weather Summary

 TemperatureHumidityPressure
High79 °F (Feb 13, 2:54 PM)97% (Feb 20, 10:54 PM)30.36 "Hg (Feb 20, 10:54 PM)
Low42 °F (Feb 24, 4:54 AM)27% (Feb 13, 2:54 PM)29.76 "Hg (Feb 22, 2:54 PM)
Average58 °F67%30.06 "Hg
* Reported Feb 11 1:54 PM — Feb 26 1:54 PM, Bakersfield, Weather by CustomWeather, © 2015

Note: Actual official high and low records may vary slightly from our data, if they occured in-between our weather recording intervals... More about our weather records

Advertising

Bakersfield weather history for previous 24 hours

 ConditionsComfort  
Time TempWeatherWind HumidityBarometerVisibility
1:54 PM
Thu, Feb 26
65 °FSunny.3 mph42%29.94 "Hg9 mi
12:54 PM65 °FSunny.5 mph37%29.97 "Hg10 mi
11:54 AM64 °FSunny.5 mph34%29.98 "Hg10 mi
10:54 AM61 °FSunny.No wind44%30.02 "Hg10 mi
9:54 AM58 °FSunny.3 mph51%30.03 "Hg10 mi
8:54 AM54 °FSunny.3 mph57%30.04 "Hg10 mi
7:54 AM51 °FSunny.No wind71%30.03 "Hg7 mi
6:54 AM46 °FSunny.No wind79%30.03 "Hg5 mi
5:54 AM46 °FClear.No wind77%30.02 "Hg9 mi
4:54 AM44 °FClear.3 mph82%30.02 "Hg8 mi
3:54 AM45 °FClear.3 mph76%30.01 "Hg10 mi
2:54 AM51 °FClear.3 mph66%30.01 "Hg10 mi
1:54 AM51 °FClear.7 mph69%30.04 "Hg10 mi
12:54 AM52 °FClear.7 mph66%30.07 "Hg10 mi
11:54 PM
Wed, Feb 25
53 °FClear.6 mph61%30.09 "Hg10 mi
10:54 PM53 °FClear.6 mph66%30.10 "Hg10 mi
9:54 PM54 °FClear.3 mph67%30.11 "Hg10 mi
8:54 PM55 °FClear.6 mph67%30.09 "Hg10 mi
7:54 PM56 °FClear.No wind60%30.09 "Hg10 mi
6:54 PM56 °FClear.5 mph62%30.09 "Hg10 mi
5:54 PM59 °FClear.8 mph54%30.10 "Hg10 mi
4:54 PM65 °FSunny.No wind39%30.09 "Hg10 mi
3:54 PM66 °FSunny.9 mph37%30.11 "Hg10 mi
Weather by CustomWeather, © 2015

See weather overviewHow to use our weather pages